Regional Weather Roundup
Issued by NWS

Home | Current Version | Previous Version | Text Only | Print | Product List | Glossary Off
Versions: 1 2 3 4 5 6 7 8 9 10 11 12 13 14 15 16 17 18 19 20 21 22 23 24 25 26 27 28 29 30 31 32 33 34 35 36 37 38 39 40 41 42 43 44 45 46 47 48 49 50

000
ASUS45 KBOU 010807
RWRCO

WEATHER ROUNDUP FOR COLORADO
NATIONAL WEATHER SERVICE DENVER/BOULDER CO
100 AM MST SUN MAR 01 2015

NOTE: "FAIR" INDICATES FEW OR NO CLOUDS BELOW 12000 FEET WITH NO
SIGNIFICANT WEATHER AND/OR OBSTRUCTIONS TO VISIBILITY.

COZ001>005-013-030-031-010900-
...NORTHWEST COLORADO...

CITY           SKY/WX    TMP DP  RH WIND       PRES   REMARKS
CRAIG          LGT SNOW  24  21  88 W10       29.96R FOG     WCI  14
HAYDEN         CLOUDY    23  19  86 W14       29.92R WCI  11
MEEKER         CLOUDY    30  26  85 NW3       29.93R
MOUNT WERNER   NOT AVBL
STEAMBOAT SPGS CLOUDY    25  24  96 CALM      29.91R
WALDEN         CLOUDY    18  14  86 N9        29.88R WCI   6
$$

COZ006>008-011-010900-
...WEST CENTRAL VALLEYS...

CITY           SKY/WX    TMP DP  RH WIND       PRES   REMARKS
GRAND JUNCTION MOCLDY    27  26  96 CALM      29.95R
MONTROSE       MOCLDY    27  26  96 SE6       29.98R WCI  20
EAGLE          CLOUDY    30  28  93 E6        29.94R WCI  24
RIFLE          MOCLDY    31  26  82 S5        29.94R WCI  26
DELTA          CLOUDY    37  33  88 N7        29.97R
NUCLA          MOCLDY    32  30  93 E7        30.02R WCI  26
$$

COZ017>023-064>068-010900-
...SOUTHWEST COLORADO...

CITY           SKY/WX    TMP DP  RH WIND       PRES   REMARKS
DURANGO        CLOUDY    29  28  96 NW3       30.00R FOG
CORTEZ         PTCLDY    25  24  96 E5        29.98R FOG     WCI  19
PAGOSA SPRINGS LGT SNOW  30  30 100 CALM      30.00R
TELLURIDE      LGT SNOW  28  22  80 NW6       29.99R WCI  21
WOLF CREEK PAS CLOUDY    16  16 100 SW37G53   29.95S WCI  -6
$$

COZ009-010-012-014-032>034-037-058>063-010900-
...CENTRAL COLORADO...

CITY           SKY/WX    TMP DP  RH WIND       PRES   REMARKS
ASPEN          LGT SNOW  26  24  92 CALM      29.91S FOG
BUENA VISTA    CLOUDY    22  19  90 CALM      29.94R FOG
COPPER MTN     LGT SNOW  18  10  73 W31G38    29.86S VSB 3/4 WCI  -2
BERTHOUD PASS  SNOW      10   3  72 W15       29.86R VSB 1/4 WCI  -6
COTTONWOOD PAS LGT SNOW  23  19  86 CALM      29.90R
GUNNISON       PTCLDY    23  19  86 CALM      29.98R
KREMMLING      CLOUDY    21  18  86 CALM      29.90R
LEADVILLE      LGT SNOW  17  15  92 NE3       29.89R FOG
SALIDA         MOCLDY    17  13  86 N7        30.01S WCI   7
SUNLIGHT       FLURRIES  21  19  93 S3          N/A
WILKERSON PASS CLOUDY    16  12  86 SW8       29.90R FOG     WCI   5
$$

COZ069>075-010900-
...SAN LUIS VALLEY/SANGRE DE CRISTO MOUNTAINS...

CITY           SKY/WX    TMP DP  RH WIND       PRES   REMARKS
ALAMOSA        PTCLDY    19  17  92 N5        29.96R WCI  12
LA VETA PASS   CLOUDY    27  23  86 S20G33    29.91R WCI  13
SAGUACHE       PTCLDY    14  12  92 NW3       29.97R
$$

COZ035-036-038>040-010900-
...NORTHERN COLORADO FRONT RANGE...

CITY           SKY/WX    TMP DP  RH WIND       PRES   REMARKS
DENVER INTL AP PTCLDY    11   7  84 S7        30.02R WCI   0
DMNS CITY PARK   N/A     16  13  86 SE2       30.01S
AURORA         PTCLDY    12   9  85 S5        30.01R WCI   4
FRONT RANGE AP NOT AVBL
ERIE MUNI ARPT CLOUDY    16  14  94 CALM      30.03S FOG
BOULDER MUN AP CLOUDY    19  19 100 CALM      30.02R FOG
CENTENNIAL     PTCLDY    10   7  87 S3        29.99R
BROOMFIELD     MOCLDY    19  16  86 CALM      30.01R
FORT COLLINS   MOCLDY    16  10  79 CALM      30.04R
LONGMONT       CLOUDY    20  17  91 CALM      30.05S FOG
$$

COZ041-046-047-076>085-087-088-010900-
...PIKES PEAK/PALMER DIVIDE AND SOUTHERN FOOTHILLS...

CITY           SKY/WX    TMP DP  RH WIND       PRES   REMARKS
COLO. SPRINGS  MOCLDY    14  11  87 CALM      29.99S FOG
A. F. ACADEMY  CLOUDY    10   7  85 N7        29.96S WCI   0
ELLICOTT       NOT AVBL
FALCON         CLOUDY    13  11  93 SW5       29.96R FOG     WCI   5
FORT CARSON    PTCLDY     9   7  90 CALM      29.99R
LIMON          PTCLDY     4   1  88 N3        30.02R
MONUMENT HILL  PTCLDY     9   5  85 SW8       29.93R WCI  -4
TRINIDAD       CLOUDY    16  13  88 CALM      30.00S
$$

COZ042>045-048>051-090-091-010900-
...NORTHEAST COLORADO...

CITY           SKY/WX    TMP DP  RH WIND       PRES   REMARKS
GREELEY ARPT   PTCLDY    18   9  68 NE5       30.04R WCI  11
AKRON          PTCLDY    15  13  91 SE3       30.04S
BURLINGTON     CLOUDY    20  14  77 SW8       30.10R WCI  10
WRAY           MOCLDY    18  14  86 CALM      30.13R
STERLING       PTCLDY    21  18  86 CALM      30.08S
HOLYOKE        NOT AVBL
FORT MORGAN    PTCLDY    17  14  87 CALM      30.06F
$$

COZ086-089-092>099-010900-
...SOUTHEAST COLORADO...

CITY           SKY/WX    TMP DP  RH WIND       PRES   REMARKS
PUEBLO         PTCLDY    13  10  88 CALM      30.06R
LA JUNTA       PTCLDY    14  10  84 W8        30.10R WCI   3
LAMAR          PTCLDY    20  17  88 CALM      30.10R
SPRINGFIELD      N/A     13  11  92 W5        30.08R WCI   5
$$


USA.gov is the U.S. government's official web portal to all federal, state and local government web resources and services.